timestamp,wind_dir_avg,wind_spd_avg,wind_spd_max_dir,wind_spd_gust,battery_voltage,lat,long
2023-12-21 00:04:00+00:00,184.0,16.15,178.0,19.25,12.25,47.59359,-54.27349
2023-12-21 00:14:01+00:00,178.0,17.52,173.0,21.72,12.17,47.59359,-54.27349
2023-12-21 00:24:01+00:00,182.0,17.33,180.0,20.41,12.17,47.59359,-54.27349
2023-12-21 00:34:01+00:00,182.0,17.15,191.0,19.49,12.17,47.59359,-54.27349
2023-12-21 00:44:01+00:00,180.0,16.41,185.0,18.62,12.17,47.59359,-54.27349
2023-12-21 00:54:01+00:00,184.0,17.03,189.0,20.45,12.17,47.59359,-54.27349
2023-12-21 01:04:01+00:00,183.0,15.97,184.0,20.1,12.17,47.59359,-54.27349
2023-12-21 01:14:00+00:00,181.0,18.78,183.0,21.07,12.17,47.59359,-54.27349
2023-12-21 01:24:00+00:00,179.0,17.25,183.0,19.07,12.17,47.59359,-54.27349
2023-12-21 01:34:00+00:00,180.0,15.43,179.0,18.45,12.17,47.59359,-54.27349
2023-12-21 01:44:00+00:00,182.0,15.75,178.0,18.26,12.17,47.59359,-54.27349
2023-12-21 01:54:00+00:00,182.0,16.75,191.0,21.51,12.17,47.59359,-54.27349
2023-12-21 02:04:00+00:00,179.0,15.46,177.0,18.53,12.17,47.59359,-54.27349
2023-12-21 02:14:00+00:00,180.0,14.96,181.0,17.19,12.09,47.59359,-54.27349
2023-12-21 02:24:00+00:00,184.0,16.76,180.0,21.63,12.09,47.59359,-54.27349
2023-12-21 02:34:00+00:00,184.0,15.63,184.0,18.4,12.09,47.59359,-54.27349
2023-12-21 02:44:00+00:00,183.0,15.08,183.0,17.65,12.09,47.59359,-54.27349
2023-12-21 02:54:00+00:00,182.0,16.56,183.0,18.38,12.09,47.59359,-54.27349
2023-12-21 03:04:00+00:00,184.0,16.76,185.0,19.33,12.09,47.59359,-54.27349
2023-12-21 03:14:00+00:00,184.0,13.85,187.0,16.19,12.09,47.59359,-54.27349
2023-12-21 03:24:00+00:00,184.0,16.18,184.0,19.13,12.09,47.59359,-54.27349
2023-12-21 03:34:00+00:00,183.0,15.08,185.0,17.92,12.09,47.59359,-54.27349
2023-12-21 03:44:00+00:00,183.0,15.03,177.0,16.8,12.09,47.59359,-54.27349
2023-12-21 03:54:00+00:00,186.0,16.1,189.0,19.61,12.09,47.59359,-54.27349
2023-12-21 04:04:00+00:00,181.0,14.64,179.0,17.17,12.09,47.59359,-54.27349
2023-12-21 04:14:01+00:00,179.0,15.81,182.0,19.28,12.09,47.59359,-54.27349
2023-12-21 04:24:01+00:00,180.0,14.89,179.0,16.94,12.09,47.59359,-54.27349
2023-12-21 04:34:01+00:00,183.0,14.41,190.0,16.72,12.09,47.59359,-54.27349
2023-12-21 04:44:01+00:00,190.0,12.38,187.0,14.19,12.09,47.59359,-54.27349
2023-12-21 04:54:01+00:00,198.0,11.24,195.0,12.8,12.09,47.59359,-54.27349
2023-12-21 05:04:01+00:00,213.0,10.09,214.0,11.31,12.09,47.59359,-54.27349
2023-12-21 05:14:00+00:00,211.0,10.64,209.0,12.55,12.09,47.59359,-54.27349
2023-12-21 05:24:00+00:00,222.0,8.64,218.0,10.45,12.09,47.59359,-54.27349
2023-12-21 05:34:00+00:00,221.0,8.54,217.0,9.99,12.09,47.59359,-54.27349
2023-12-21 05:44:00+00:00,189.0,11.18,194.0,13.07,12.09,47.59359,-54.27349
2023-12-21 05:54:00+00:00,180.0,12.12,189.0,13.72,12.09,47.59359,-54.27349
2023-12-21 06:04:00+00:00,177.0,13.14,174.0,14.85,12.09,47.59359,-54.27349
2023-12-21 06:14:00+00:00,209.0,8.67,197.0,10.1,12.01,47.59359,-54.27349
2023-12-21 06:24:00+00:00,181.0,11.52,183.0,13.57,12.01,47.59359,-54.27349
2023-12-21 06:34:00+00:00,175.0,11.99,180.0,13.82,12.01,47.59359,-54.27349
2023-12-21 06:44:00+00:00,172.0,12.52,177.0,14.45,12.01,47.59359,-54.27349
2023-12-21 06:54:00+00:00,173.0,12.28,174.0,14.37,12.01,47.59359,-54.27349
2023-12-21 07:04:00+00:00,171.0,11.99,172.0,13.64,12.01,47.59359,-54.27349
2023-12-21 07:14:00+00:00,172.0,11.14,176.0,12.85,12.01,47.59359,-54.27349
2023-12-21 07:24:00+00:00,175.0,11.32,179.0,12.93,12.01,47.59359,-54.27349
2023-12-21 07:34:00+00:00,170.0,10.99,175.0,12.7,12.01,47.59359,-54.27349
2023-12-21 07:44:00+00:00,169.0,11.41,172.0,13.09,12.01,47.59359,-54.27349
2023-12-21 07:54:00+00:00,172.0,11.9,168.0,13.59,12.01,47.59359,-54.27349
2023-12-21 08:04:00+00:00,173.0,12.38,172.0,14.08,12.01,47.59359,-54.27349
2023-12-21 08:14:00+00:00,177.0,12.14,175.0,13.18,12.01,47.59359,-54.27349
2023-12-21 08:24:00+00:00,172.0,10.18,171.0,11.77,12.01,47.59359,-54.27349
2023-12-21 08:34:00+00:00,171.0,11.64,176.0,12.84,12.01,47.59359,-54.27349
2023-12-21 08:44:00+00:00,174.0,9.6,173.0,10.68,12.01,47.59359,-54.27349
2023-12-21 08:54:00+00:00,173.0,10.0,172.0,11.95,12.01,47.59359,-54.27349
2023-12-21 09:04:00+00:00,172.0,10.5,175.0,12.32,12.01,47.59359,-54.27349
2023-12-21 09:14:01+00:00,175.0,9.3,176.0,11.46,12.09,47.59359,-54.27349
2023-12-21 09:24:01+00:00,184.0,8.71,189.0,10.54,12.09,47.59359,-54.27349
2023-12-21 09:34:01+00:00,174.0,9.75,178.0,11.87,12.09,47.59359,-54.27349
2023-12-21 09:44:01+00:00,170.0,10.93,166.0,12.4,12.09,47.59359,-54.27349
2023-12-21 09:54:01+00:00,177.0,10.61,175.0,12.78,12.09,47.59359,-54.27349
2023-12-21 10:04:01+00:00,177.0,9.71,173.0,11.19,12.09,47.59359,-54.27349
2023-12-21 10:14:00+00:00,169.0,8.29,174.0,10.0,12.09,47.59359,-54.27349
2023-12-21 10:24:00+00:00,162.0,8.83,163.0,9.68,12.09,47.59359,-54.27349
2023-12-21 10:34:00+00:00,162.0,9.99,163.0,11.37,12.09,47.59359,-54.27349
2023-12-21 10:44:00+00:00,164.0,10.03,163.0,12.07,12.09,47.59359,-54.27349
2023-12-21 10:54:00+00:00,154.0,8.1,157.0,10.02,12.09,47.59359,-54.27349
2023-12-21 11:04:00+00:00,160.0,9.44,161.0,10.84,12.09,47.59359,-54.27349
2023-12-21 11:14:00+00:00,156.0,8.75,159.0,10.12,12.01,47.59359,-54.27349
2023-12-21 11:24:00+00:00,151.0,8.09,155.0,10.13,12.01,47.59359,-54.27349
2023-12-21 11:34:00+00:00,159.0,9.01,160.0,10.64,12.01,47.59359,-54.27349
2023-12-21 11:44:00+00:00,160.0,8.67,160.0,10.55,12.01,47.59359,-54.27349
2023-12-21 11:54:00+00:00,155.0,7.48,157.0,8.88,12.01,47.59359,-54.27349
2023-12-21 12:04:00+00:00,157.0,7.77,156.0,10.32,12.01,47.59359,-54.27349
2023-12-21 12:14:00+00:00,154.0,7.39,157.0,8.5,12.17,47.59359,-54.27349
2023-12-21 12:24:00+00:00,152.0,8.6,153.0,9.31,12.17,47.59359,-54.27349
2023-12-21 12:34:00+00:00,150.0,8.79,150.0,10.53,12.17,47.59359,-54.27349
2023-12-21 12:44:00+00:00,156.0,8.85,147.0,10.08,12.17,47.59359,-54.27349
2023-12-21 12:54:00+00:00,158.0,9.3,162.0,10.95,12.17,47.59359,-54.27349
2023-12-21 13:04:00+00:00,158.0,8.54,159.0,9.57,12.17,47.59359,-54.27349
2023-12-21 13:14:00+00:00,157.0,8.81,156.0,10.05,12.89,47.59359,-54.27349
2023-12-21 13:24:00+00:00,160.0,9.08,160.0,10.15,12.89,47.59359,-54.27349
2023-12-21 13:34:00+00:00,156.0,8.31,162.0,9.66,12.89,47.59359,-54.27349
2023-12-21 13:44:00+00:00,158.0,6.75,155.0,7.54,12.89,47.59359,-54.27349
2023-12-21 13:54:00+00:00,160.0,6.34,161.0,7.43,12.89,47.59359,-54.27349
2023-12-21 14:04:00+00:00,158.0,6.19,159.0,6.7,12.89,47.59359,-54.27349
2023-12-21 14:14:00+00:00,158.0,6.98,161.0,7.68,12.97,47.59359,-54.27349
2023-12-21 14:24:00+00:00,157.0,6.29,160.0,6.94,12.97,47.59359,-54.27349
2023-12-21 14:34:00+00:00,157.0,6.41,157.0,6.99,12.97,47.59359,-54.27349
2023-12-21 14:44:00+00:00,148.0,7.05,143.0,8.15,12.97,47.59359,-54.27349
2023-12-21 14:54:00+00:00,144.0,7.65,145.0,8.84,12.97,47.59359,-54.27349
2023-12-21 15:04:00+00:00,146.0,7.02,144.0,8.26,12.97,47.59359,-54.27349
2023-12-21 15:14:00+00:00,148.0,6.43,148.0,7.07,13.29,47.59359,-54.27349
2023-12-21 15:24:00+00:00,154.0,5.89,156.0,6.44,13.29,47.59359,-54.27349
2023-12-21 15:34:00+00:00,156.0,5.57,156.0,6.39,13.29,47.59359,-54.27349
2023-12-21 15:44:00+00:00,157.0,5.65,158.0,6.33,13.29,47.59359,-54.27349
2023-12-21 15:54:00+00:00,156.0,6.14,158.0,6.67,13.29,47.59359,-54.27349
2023-12-21 16:04:00+00:00,163.0,6.06,166.0,6.82,13.29,47.59359,-54.27349
2023-12-21 16:14:00+00:00,157.0,7.03,158.0,7.76,13.05,47.59359,-54.27349
2023-12-21 16:24:00+00:00,156.0,5.91,155.0,6.33,13.05,47.59359,-54.27349
2023-12-21 16:34:00+00:00,153.0,6.13,156.0,6.58,13.05,47.59359,-54.27349
2023-12-21 16:44:00+00:00,160.0,4.86,161.0,5.46,13.05,47.59359,-54.27349
2023-12-21 16:54:00+00:00,153.0,5.48,156.0,5.88,13.05,47.59359,-54.27349
2023-12-21 17:04:00+00:00,153.0,4.66,153.0,5.3,13.05,47.59359,-54.27349
2023-12-21 17:14:00+00:00,149.0,3.82,149.0,4.55,12.89,47.59359,-54.27349
2023-12-21 17:24:00+00:00,154.0,1.67,158.0,2.33,12.89,47.59359,-54.27349
2023-12-21 17:34:00+00:00,264.0,1.75,262.0,2.24,12.89,47.59359,-54.27349
2023-12-21 17:44:00+00:00,254.0,1.7,254.0,2.14,12.89,47.59359,-54.27349
2023-12-21 17:54:00+00:00,256.0,1.36,252.0,1.7,12.89,47.59359,-54.27349
2023-12-21 18:04:00+00:00,266.0,0.58,274.0,1.02,12.89,47.59359,-54.27349
2023-12-21 18:14:00+00:00,59.0,0.81,56.0,1.1,12.73,47.59359,-54.27349
2023-12-21 18:24:00+00:00,93.0,1.58,114.0,2.54,12.73,47.59359,-54.27349
2023-12-21 18:34:00+00:00,57.0,1.02,58.0,1.31,12.73,47.59359,-54.27349
2023-12-21 18:44:00+00:00,66.0,1.49,74.0,1.69,12.73,47.59359,-54.27349
2023-12-21 18:54:00+00:00,83.0,1.99,74.0,2.62,12.73,47.59359,-54.27349
2023-12-21 19:04:00+00:00,83.0,3.07,72.0,4.11,12.73,47.59359,-54.27349
2023-12-21 19:14:00+00:00,82.0,2.25,101.0,3.07,12.49,47.59359,-54.27349
2023-12-21 19:24:00+00:00,98.0,2.1,100.0,2.92,12.49,47.59359,-54.27349
2023-12-21 19:34:00+00:00,117.0,3.21,114.0,3.65,12.49,47.59359,-54.27349
2023-12-21 19:44:00+00:00,121.0,3.15,124.0,3.62,12.49,47.59359,-54.27349
2023-12-21 19:54:00+00:00,132.0,3.52,142.0,4.28,12.49,47.59359,-54.27349
2023-12-21 20:04:00+00:00,139.0,3.11,140.0,3.31,12.49,47.59359,-54.27349
2023-12-21 20:14:00+00:00,144.0,3.37,146.0,4.0,12.41,47.59359,-54.27349
2023-12-21 20:24:00+00:00,117.0,2.88,128.0,3.42,12.41,47.59359,-54.27349
2023-12-21 20:34:00+00:00,96.0,2.52,91.0,3.43,12.41,47.59359,-54.27349
2023-12-21 20:44:00+00:00,97.0,2.03,101.0,3.11,12.41,47.59359,-54.27349
2023-12-21 20:54:00+00:00,103.0,1.75,90.0,2.39,12.41,47.59359,-54.27349
2023-12-21 21:04:00+00:00,103.0,2.32,92.0,3.35,12.41,47.59359,-54.27349
2023-12-21 21:14:00+00:00,92.0,2.23,90.0,2.86,12.41,47.59359,-54.27349
2023-12-21 21:24:00+00:00,89.0,1.72,70.0,2.22,12.41,47.59359,-54.27349
2023-12-21 21:34:00+00:00,319.0,1.45,328.0,1.94,12.41,47.59359,-54.27349
2023-12-21 21:44:00+00:00,29.0,1.57,37.0,2.34,12.41,47.59359,-54.27349
2023-12-21 21:54:00+00:00,70.0,1.86,77.0,2.11,12.41,47.59359,-54.27349
2023-12-21 22:04:00+00:00,94.0,1.19,71.0,1.66,12.41,47.59359,-54.27349
2023-12-21 22:14:00+00:00,81.0,1.83,82.0,2.26,12.41,47.59359,-54.27349
2023-12-21 22:24:00+00:00,58.0,2.25,56.0,2.79,12.41,47.59359,-54.27349
2023-12-21 22:34:00+00:00,95.0,3.4,108.0,4.46,12.41,47.59359,-54.27349
2023-12-21 22:44:00+00:00,107.0,2.71,141.0,4.2,12.41,47.59359,-54.27349
2023-12-21 22:54:00+00:00,113.0,3.3,89.0,4.71,12.41,47.59359,-54.27349
2023-12-21 23:04:00+00:00,97.0,3.75,92.0,5.76,12.41,47.59359,-54.27349
2023-12-21 23:14:00+00:00,85.0,3.64,72.0,4.92,12.41,47.59359,-54.27349
2023-12-21 23:24:00+00:00,79.0,3.55,58.0,5.82,12.41,47.59359,-54.27349
2023-12-21 23:34:00+00:00,81.0,4.0,82.0,5.94,12.41,47.59359,-54.27349
2023-12-21 23:44:00+00:00,71.0,4.32,70.0,5.35,12.41,47.59359,-54.27349
2023-12-21 23:54:00+00:00,73.0,4.71,64.0,5.92,12.41,47.59359,-54.27349
